{"data":{"norad_id":66465,"intl_designator":"2025-262K","name":"STARLINK-35448","alt_names":[],"object_type":"PAYLOAD","status":"ACTIVE","operator":null,"country":"US","launch_date":"2025-11-15","launch_site_code":"AFETR","launch_vehicle":null,"mission":null,"orbit_class":"UNKNOWN","rcs_meters":null,"size_class":null,"mass_kg":null,"dimensions":null,"purposes":["comms"],"wikipedia_slug":null,"has_3d_model":false,"image_url":null,"decayed_at":null,"tle_current":{"epoch":"2026-09-20T08:14:41.418816Z","epoch_age_seconds":102839,"freshness":"FRESH","line1":"1 66465U 25262K   26263.34353494  .00014672  00000+0  54120-3 0  9992","line2":"2 66465  43.0009 277.0879 0001018 277.6193  82.4543 15.27605341 48675","mean_motion":15.27605341,"eccentricity":0.0001018,"inclination_deg":43.0009,"raan_deg":277.0879,"arg_perigee_deg":277.6193,"mean_anomaly_deg":82.4543,"bstar":0.0005412,"rev_number":4867,"period_min":94.265184950018,"perigee_km":482.27475599815,"apogee_km":483.67167803833,"semimajor_km":6861.1102170182,"source":"CELESTRAK","updated_at":"2026-09-21T09:00:35.914142Z"}}}